Theta_e
318 318 318 318 316 315 312 306 295 302 306 295 295 290 288 292 290 293 292 290 288 286 288 286 284 285 290 291 289 286 287 285 282 283 278 278 280 281 281 278 275 273 273 281
318 318 318 318 317 315 310 301 299 303 303 289 290 288 288 291 289 290 291 290 290 290 288 285 286 287 290 290 290 287 287 283 281 281 279 279 277 280 281 280 277 275 274 280
314 316 317 317 317 316 312 300 291 295 296 296 290 289 288 288 291 292 291 289 290 287 286 290 287 285 289 289 291 295 293 285 282 281 282 281 277 279 280 282 278 280 280 283
312 312 315 317 317 316 312 300 294 295 287 291 293 291 289 287 287 291 291 289 289 288 287 287 287 288 286 286 290 287 289 285 286 286 288 280 280 281 281 278 281 279 283 283
308 310 310 312 314 316 308 300 295 295 293 294 292 292 290 288 288 290 288 288 289 291 288 289 287 289 287 289 283 283 283 283 285 284 286 282 281 285 285 280 281 281 283 283
305 305 306 307 308 313 307 308 303 298 293 291 289 289 289 290 293 293 293 292 291 289 290 294 295 292 291 292 288 281 280 281 275 280 281 279 277 282 286 287 287 284 279 285
302 303 302 304 305 305 305 307 304 296 289 291 289 292 292 291 291 291 293 294 291 294 295 292 291 287 286 286 289 287 280 280 282 280 274 273 285 289 285 285 287 288 288 289
299 299 300 301 302 302 300 301 302 300 293 294 293 292 291 293 293 292 292 294 296 297 292 288 285 285 286 287 289 289 288 283 280 278 278 282 284 283 281 280 284 289 286 289
297 297 298 298 299 300 299 297 300 296 291 293 296 292 293 290 290 291 292 296 294 293 290 285 281 280 280 277 277 282 288 287 284 281 276 274 283 286 281 282 280 291 290 289
296 295 296 297 297 298 297 294 298 290 288 291 296 293 292 296 294 291 289 290 287 290 288 284 282 282 285 281 277 277 279 281 279 281 279 282 288 277 281 277 283 287 291 290
295 294 295 295 295 296 294 293 296 290 285 287 290 291 291 293 295 290 289 288 287 286 285 285 285 283 285 284 286 285 282 279 279 279 278 277 287 279 282 289 293 289 284 284
296 296 295 295 295 295 294 286 294 296 286 285 291 291 291 291 295 293 290 291 287 291 286 287 288 285 285 285 281 289 283 286 285 285 283 288 287 292 293 293 293 290 283 282
295 296 296 296 296 296 294 286 288 287 282 283 284 284 290 294 296 300 291 292 295 289 294 290 288 285 288 283 284 286 288 292 287 287 289 289 287 290 294 295 291 292 283 281
295 295 296 296 296 295 295 285 287 285 282 276 276 288 288 292 293 294 297 296 297 296 295 290 288 286 289 287 288 287 290 290 288 288 290 292 293 294 293 288 285 283 281 281
294 295 295 295 295 294 291 289 288 289 282 270 273 281 284 286 287 287 289 291 291 290 288 288 286 289 288 288 288 288 292 290 287 286 292 292 292 295 296 291 286 284 282 279
294 294 295 295 295 294 287 281 285 292 289 280 273 277 279 282 284 284 285 285 286 287 287 287 289 293 289 285 285 291 293 295 296 292 296 296 296 295 292 293 290 286 284 286
294 294 294 294 295 289 283 280 284 292 289 280 274 274 275 281 282 282 283 285 285 287 285 284 285 286 289 286 282 290 293 295 296 297 296 293 290 293 291 287 290 286 284 284
293 293 294 294 294 292 284 288 292 291 284 278 271 270 268 274 274 276 278 277 278 279 280 281 281 284 285 281 287 290 292 293 293 294 296 296 297 288 286 284 283 282 280 279
293 293 293 289 286 281 280 291 291 288 283 268 265 262 267 273 274 275 278 281 276 281 277 277 279 277 276 283 286 288 289 290 292 293 292 292 291 290 281 281 281 281 280 278
292 288 283 277 276 288 288 278 270 273 274 272 271 275 269 273 273 268 273 277 277 273 278 282 278 276 281 283 284 286 287 290 291 290 290 291 291 291 289 282 284 284 281 278
284 280 278 280 288 282 277 271 265 264 264 271 272 273 272 275 270 271 272 266 267 267 272 273 273 274 281 285 285 287 288 289 289 291 291 292 292 292 290 283 282 282 280 278
284 283 282 279 272 271 268 266 262 260 262 264 268 274 277 275 279 273 273 269 270 264 268 265 270 276 279 268 268 271 275 282 286 283 286 288 288 290 286 283 281 281 280 275
286 282 277 275 272 267 264 257 257 254 259 267 275 273 276 276 279 275 274 270 269 264 264 264 272 268 262 260 262 264 266 270 276 285 287 288 289 287 286 282 280 278 273 270
276 272 269 269 265 264 261 260 265 270 266 264 269 272 272 272 272 273 271 274 268 264 258 261 254 258 258 258 259 259 260 263 266 280 279 281 282 282 282 280 275 270 267 267
273 273 267 266 262 256 261 261 261 263 264 266 266 266 272 270 271 274 272 269 261 261 258 255 256 258 258 258 257 257 258 260 266 276 278 279 278 275 271 271 270 268 266 265
275 273 268 264 265 264 261 257 255 260 262 264 265 264 265 268 271 267 264 267 262 253 250 253 255 256 256 257 256 257 258 260 272 275 274 271 269 266 264 265 266 266 265 264
271 269 262 264 263 261 250 250 256 260 259 260 267 267 266 271 270 264 253 249 250 251 251 253 255 255 255 256 256 257 257 261 263 265 264 264 264 264 263 260 260 260 260 260
Wind_Speed
18 20 20 22 23 24 18 6 6 7 11 7 6 16 8 7 8 6 10 7 13 13 12 10 9 13 14 11 11 12 8 6 9 16 1 2 2 8 12 8 9 4 4 30
18 20 21 21 24 29 8 5 5 4 7 12 16 4 5 7 5 10 16 12 9 7 10 5 11 12 5 12 13 13 11 5 8 7 2 2 8 8 7 1 3 13 8 26
11 14 21 22 24 31 10 5 6 5 6 6 13 15 11 9 3 17 6 5 7 3 7 10 10 5 7 9 11 6 17 9 13 20 13 7 7 12 15 23 13 15 34 27
15 12 10 21 23 29 13 6 5 6 9 18 18 9 6 18 10 7 8 11 19 9 13 17 20 8 2 1 3 1 10 15 18 22 28 6 8 14 17 21 29 21 33 29
14 13 14 12 15 25 15 7 7 5 3 12 23 23 22 29 17 8 9 20 10 21 23 30 26 21 5 11 6 6 2 14 12 25 19 9 9 34 17 25 26 26 28 40
16 14 15 14 19 13 8 8 3 8 12 13 12 23 34 34 25 21 24 19 17 20 27 25 24 5 4 12 15 12 8 5 3 26 4 7 9 30 31 34 26 26 29 42
15 16 14 15 14 13 7 3 4 6 10 17 22 26 29 33 34 31 24 24 24 37 7 3 4 2 6 8 18 10 10 9 9 16 5 17 31 21 11 21 31 26 30 31
16 14 16 15 14 15 4 4 6 5 13 15 21 24 28 27 26 28 31 27 26 9 7 8 10 7 10 27 25 22 19 11 12 14 18 25 28 13 9 11 26 23 20 29
17 17 17 16 15 14 4 5 6 4 7 9 21 23 24 20 20 18 25 25 4 5 8 6 10 11 7 6 6 4 20 22 20 15 17 24 34 14 7 5 24 32 24 26
18 17 17 19 16 14 5 4 3 3 4 4 5 8 14 12 17 10 4 8 3 6 12 12 12 13 8 12 10 8 5 11 24 24 25 17 25 10 6 12 43 6 20 23
16 15 17 15 15 14 7 3 3 2 4 3 6 11 10 7 10 13 4 4 3 7 16 10 10 9 14 14 21 20 19 11 10 11 15 25 7 7 22 37 35 14 8 7
18 22 17 16 16 13 10 2 3 4 4 6 3 15 18 19 16 10 4 3 4 11 9 9 7 8 7 18 19 19 20 21 20 17 11 7 12 28 35 35 30 21 6 6
19 20 21 20 17 16 12 3 2 1 5 10 10 14 14 16 19 15 12 10 8 5 5 6 7 13 6 12 17 21 16 18 20 21 17 21 21 26 27 27 29 20 8 10
21 21 22 21 18 18 13 3 3 2 2 6 9 4 9 2 6 11 15 21 21 21 14 13 10 12 10 13 14 20 20 14 22 22 25 24 26 31 30 17 7 13 9 12
22 20 22 20 19 16 9 3 4 6 6 6 7 13 27 18 16 20 18 15 15 13 16 14 10 5 8 5 9 15 17 23 19 21 30 21 33 33 23 18 24 22 18 11
23 21 21 20 19 18 3 3 3 4 5 4 4 5 11 17 17 22 22 16 14 14 15 9 13 24 10 10 19 21 14 22 27 25 28 28 28 20 13 23 24 23 23 24
22 21 21 19 21 5 4 4 5 7 3 3 5 5 6 4 10 9 11 14 12 12 14 16 18 17 15 20 31 33 28 32 32 32 28 29 20 23 12 10 17 18 21 15
22 21 21 21 21 17 7 10 14 10 3 1 4 6 5 3 4 6 4 6 4 5 13 16 17 20 20 22 20 21 26 22 24 30 29 32 30 8 10 6 7 11 15 14
19 19 20 10 4 3 6 10 14 4 6 4 2 4 15 4 6 5 4 7 14 9 13 15 13 18 21 30 29 23 17 19 25 25 22 24 22 20 7 9 12 16 18 18
19 8 3 4 5 4 3 6 3 3 4 3 9 10 15 2 8 5 4 4 9 7 10 9 13 21 32 35 34 34 37 23 19 23 25 24 22 21 20 24 20 19 18 19
2 4 5 2 2 3 2 2 3 2 3 5 7 10 14 3 10 14 5 5 4 10 15 9 12 16 21 19 24 26 30 33 33 30 26 21 20 22 16 13 16 16 19 21
8 5 2 2 3 2 4 4 4 3 8 4 3 1 2 4 3 5 4 4 2 8 3 4 9 14 2 15 20 23 22 22 17 6 10 13 12 15 14 14 15 16 18 18
2 6 8 6 5 7 8 9 6 2 4 5 4 4 4 3 2 6 6 8 8 2 1 7 12 8 14 17 18 23 23 23 25 23 18 17 17 11 11 12 11 15 16 16
4 4 5 5 4 5 7 6 7 8 4 2 1 7 5 5 8 8 10 7 3 4 5 7 7 18 21 20 17 18 23 23 27 23 6 6 7 9 10 12 15 17 16 15
4 4 6 6 4 2 4 2 3 4 2 3 4 4 5 6 7 6 4 5 6 3 3 5 12 20 21 22 23 22 22 20 24 7 4 6 10 11 12 11 13 17 17 17
4 5 3 1 2 5 3 3 1 6 5 4 0 6 5 8 7 5 6 4 5 2 5 10 13 18 19 20 21 21 20 21 14 3 7 10 12 13 13 15 12 13 16 15
4 4 3 2 5 3 2 1 3 7 3 3 3 8 10 7 5 3 6 4 6 10 12 11 16 17 19 19 19 18 18 16 13 9 9 12 12 14 15 17 12 15 15 15
Wind_Direction
232 229 222 218 198 169 164 173 207 159 161 179 206 231 195 209 219 187 242 197 211 196 184 201 220 212 215 156 151 162 202 157 232 232 211 332 222 198 174 195 228 254 139 272
244 229 227 223 201 173 161 204 183 195 191 204 214 238 271 240 204 193 223 230 201 194 195 232 190 218 205 158 156 168 178 219 249 262 87 12 221 197 222 240 128 201 176 254
328 269 237 227 210 189 192 159 174 166 233 226 208 220 246 244 251 245 260 258 184 125 237 235 257 228 207 197 194 201 161 178 195 230 228 134 185 216 218 218 225 229 233 259
300 334 318 243 222 201 198 174 192 195 193 216 221 191 201 230 230 215 202 250 229 204 237 247 242 240 237 212 228 211 173 229 226 246 255 180 210 235 215 216 227 217 250 243
348 347 338 341 276 212 216 202 170 179 223 211 210 213 227 243 237 182 221 228 230 228 237 233 247 233 173 216 5 189 220 249 246 254 254 196 249 255 238 230 236 244 253 260
333 335 337 350 1 227 231 229 202 187 189 207 209 212 221 228 231 244 245 237 239 243 239 246 261 274 216 239 224 194 174 194 199 251 189 117 265 245 239 255 237 230 242 251
300 313 329 338 336 347 293 258 205 193 228 210 209 219 214 225 223 227 224 216 229 239 261 73 41 62 216 217 243 189 204 209 225 249 90 226 251 268 203 230 250 237 246 261
295 301 302 309 315 332 306 294 287 256 238 226 222 223 222 228 234 230 237 235 226 225 148 237 249 227 245 246 247 238 229 208 234 228 230 255 286 213 159 199 266 243 219 243
295 295 298 303 304 309 309 299 301 241 297 239 213 216 220 225 238 240 233 240 163 125 186 200 219 224 181 247 293 3 226 231 234 232 238 241 248 268 151 103 269 257 219 239
281 289 300 289 289 296 294 272 299 326 274 256 323 237 222 224 227 244 189 189 197 165 221 222 227 225 182 217 202 210 169 210 223 232 242 246 253 140 138 191 250 149 207 223
274 283 281 298 295 293 290 253 289 282 265 272 270 286 306 309 218 228 177 127 199 193 213 224 221 221 211 223 223 216 211 186 212 230 247 253 174 117 209 239 257 257 204 190
276 277 267 277 282 291 299 276 200 207 248 277 325 274 272 273 276 277 221 282 149 208 212 208 223 221 204 214 230 217 233 208 215 199 203 207 193 217 224 239 242 239 182 195
278 276 276 272 272 279 278 218 224 229 261 272 218 237 262 243 244 247 268 261 239 217 244 261 224 236 171 221 227 233 221 228 226 240 231 232 223 229 235 230 232 235 203 182
271 276 284 274 278 277 273 193 206 167 295 284 289 319 255 293 326 276 258 260 264 267 264 253 251 257 198 226 233 219 219 197 221 243 245 245 249 243 237 233 230 208 187 188
268 276 278 270 269 274 287 191 200 199 200 242 282 319 289 274 268 273 270 257 254 253 253 249 259 236 233 232 260 241 220 224 218 225 228 224 241 248 245 218 217 210 195 194
264 267 272 272 271 270 56 291 322 217 223 262 254 263 260 262 254 247 253 257 255 253 264 257 247 245 253 251 247 240 213 233 238 236 241 253 247 248 226 217 217 211 206 208
261 263 264 269 268 247 190 210 191 171 149 242 267 286 267 300 252 259 263 260 248 245 253 248 258 265 271 251 252 248 247 229 234 241 245 251 240 248 227 193 215 199 206 199
262 266 267 272 275 278 264 244 265 267 257 240 254 266 337 243 255 250 209 222 227 227 241 250 246 255 257 259 272 258 256 249 236 239 241 245 254 248 203 183 148 171 188 172
265 269 274 282 257 215 235 258 255 194 192 207 185 211 278 329 278 271 273 231 260 243 239 240 243 247 242 246 250 256 253 246 246 246 244 248 248 241 188 180 193 192 189 177
262 268 211 216 225 218 107 19 33 352 237 225 241 243 251 333 291 289 300 271 279 276 248 251 225 244 243 246 253 261 263 258 256 250 248 248 250 245 225 206 205 201 181 166
116 210 212 221 163 88 53 237 139 253 273 224 229 229 255 242 259 268 224 240 259 264 263 277 284 291 277 254 258 265 262 255 253 251 251 255 254 247 227 204 201 192 175 175
195 167 100 90 81 121 160 192 315 162 225 263 164 211 222 250 247 235 249 222 237 245 214 140 248 242 61 12 340 327 327 326 303 287 260 257 242 235 207 198 188 174 159 145
222 202 184 172 171 185 187 193 264 282 238 233 156 256 222 284 240 273 244 232 231 18 182 228 248 8 347 346 334 324 322 322 303 271 258 266 256 218 193 168 161 150 139 140
201 212 226 216 177 227 201 194 193 223 181 296 341 299 288 261 265 220 243 221 128 249 255 248 350 342 327 327 326 321 316 310 304 284 257 219 180 156 153 151 142 134 127 132
221 206 226 205 231 250 245 280 26 328 325 17 321 285 239 250 238 237 286 266 254 217 282 325 326 325 324 323 325 319 315 311 301 264 164 129 109 100 93 108 121 117 123 126
217 211 163 158 34 302 350 21 40 11 326 295 148 256 252 239 219 202 230 241 239 333 313 306 309 313 314 317 317 313 312 311 298 72 100 95 98 104 95 82 89 105 112 118
196 231 40 102 77 85 157 335 355 329 340 244 232 248 235 297 249 109 17 342 313 317 306 302 306 309 312 316 314 318 319 325 339 28 59 87 100 100 94 89 82 84 87 96